Location: Zapote
(9.9191°N, 84.0597°W)
Time: 05:11:09
(UTC-06:00)

Transit 2A - All Passes

Search period start: 01 March 2021 00:00
Search period end: 11 March 2021 00:00
Orbit: 601 x 958 km, 66.7° (Epoch: 28 February)

Date Brightness Start Highest point End Pass type
(mag) Time Alt. Az. Time Alt. Az. Time Alt. Az.
01 Mar - 05:18:36 10° NW 05:22:43 38° WSW 05:27:08 10° S visible
01 Mar - 16:16:26 10° SSE 16:20:45 20° ESE 16:24:48 10° ENE daylight
01 Mar - 17:58:27 10° SW 18:03:44 33° WNW 18:08:37 10° N visible
02 Mar - 04:44:12 10° NNW 04:48:35 72° WSW 04:53:20 10° SSE visible
02 Mar - 15:44:26 10° SE 15:46:35 12° ESE 15:48:40 10° E daylight
02 Mar - 17:23:46 10° SW 17:29:37 53° WNW 17:34:57 10° N daylight
03 Mar - 04:10:07 10° N 04:14:28 61° ENE 04:19:09 10° SSE visible
03 Mar - 16:49:26 10° SSW 16:55:29 87° WNW 17:00:59 10° NNE daylight
04 Mar - 03:36:22 10° N 03:40:21 33° ENE 03:44:36 10° SE visible
04 Mar - 05:22:04 10° W 05:23:15 11° WSW 05:24:27 10° SW visible
04 Mar - 16:15:26 10° S 16:21:21 58° ESE 16:26:45 10° NNE daylight
04 Mar - 18:03:13 10° W 18:04:19 11° WNW 18:05:26 10° NW visible
05 Mar - 03:03:04 10° NNE 03:06:14 19° ENE 03:09:31 10° ESE visible
05 Mar - 04:45:49 10° WNW 04:49:06 20° WSW 04:52:33 10° SSW visible
05 Mar - 15:41:46 10° S 15:47:12 35° ESE 15:52:13 10° NE daylight
05 Mar - 17:26:16 10° WSW 17:30:09 18° WNW 17:33:50 10° NNW daylight
06 Mar - 02:31:16 10° ENE 02:32:04 10° ENE 02:32:52 10° ENE visible
06 Mar - 04:10:53 10° NW 04:14:57 35° WSW 04:19:19 10° S visible
06 Mar - 15:08:32 10° SSE 15:13:02 22° ESE 15:17:16 10° ENE daylight
06 Mar - 16:50:57 10° SW 16:56:00 29° WNW 17:00:42 10° N daylight
07 Mar - 03:36:25 10° NNW 03:40:49 64° WSW 03:45:34 10° S visible
07 Mar - 14:36:11 10° SE 14:38:52 13° ESE 14:41:27 10° E daylight
07 Mar - 16:16:10 10° SW 16:21:53 48° WNW 16:27:06 10° N daylight
08 Mar - 03:02:16 10° NNW 03:06:41 70° ENE 03:11:28 10° SSE visible
08 Mar - 15:41:47 10° SSW 15:47:46 79° WNW 15:53:11 10° NNE daylight
09 Mar - 02:28:27 10° N 02:32:34 37° ENE 02:36:59 10° SE night (unlit)
09 Mar - 15:07:42 10° S 15:13:38 64° ESE 15:19:00 10° NNE daylight
10 Mar - 01:55:02 10° NNE 01:58:28 21° ENE 02:02:02 10° ESE night (unlit)
10 Mar - 03:38:14 10° WNW 03:41:20 18° WSW 03:44:35 10° SSW night (unlit)
10 Mar - 14:33:59 10° S 14:39:29 39° ESE 14:44:32 10° NE daylight
10 Mar - 16:18:58 10° WSW 16:22:26 16° WNW 16:25:43 10° NNW daylight
